GW0935 Weather Reports


time (UTC)temp
C
wind
direction
speed
KPH
gust
KPH
rain 1hr
cm
rain 24hr
cm
rain mn
cm
humidity
%
barometer
mb
20260507203205 11 143 0.0 0.0 0.00 0.00 0.00 78 1014.6
20260507203005 11 143 0.0 0.0 0.00 0.00 0.00 78 1014.6
20260507202806 11 143 0.0 0.0 0.00 0.00 0.00 78 1014.5
20260507202603 11 143 0.0 0.0 0.00 0.00 0.00 78 1014.5
20260507202204 11 143 0.0 0.0 0.00 0.00 0.00 78 1014.5
20260507202007 11 145 0.0 0.0 0.00 0.00 0.00 78 1014.5
20260507201804 11 145 0.0 1.6 0.00 0.00 0.00 78 1014.5
20260507201605 11 145 0.0 1.6 0.00 0.00 0.00 78 1014.5
20260507201404 11 132 0.0 1.6 0.00 0.00 0.00 77 1014.5
20260507201206 11 129 0.0 1.6 0.00 0.00 0.00 77 1014.5
20260507201005 11 129 1.6 1.6 0.00 0.00 0.00 77 1014.5
20260507200805 11 150 0.0 0.0 0.00 0.00 0.00 77 1014.4
20260507200406 11 150 0.0 3.2 0.00 0.00 0.00 77 1014.4
20260507200204 11 150 0.0 3.2 0.00 0.00 0.00 77 1014.4
20260507200009 11 150 0.0 3.2 0.00 0.00 0.00 77 1014.4
20260507195803 11 150 0.0 3.2 0.00 0.00 0.00 77 1014.3
20260507195604 11 148 1.6 4.8 0.00 0.00 0.00 77 1014.3
20260507195204 11 143 0.0 4.8 0.00 0.00 0.00 76 1014.3
20260507195005 11 143 1.6 4.8 0.00 0.00 0.00 76 1014.4
20260507194803 11 98 0.0 3.2 0.00 0.00 0.00 76 1014.4
20260507194604 11 157 1.6 3.2 0.00 0.00 0.00 76 1014.3
20260507194404 11 198 0.0 3.2 0.00 0.00 0.00 76 1014.3
20260507194204 11 183 1.6 3.2 0.00 0.00 0.00 76 1014.3
20260507194006 11 147 1.6 4.8 0.00 0.00 0.00 76 1014.3
20260507193805 11 141 0.0 4.8 0.00 0.00 0.00 76 1014.3
20260507193605 11 150 0.0 4.8 0.00 0.00 0.00 76 1014.3
20260507193404 11 187 1.6 4.8 0.00 0.00 0.00 76 1014.3
20260507193205 11 153 0.0 8.0 0.00 0.00 0.00 77 1014.2
20260507193004 11 154 1.6 8.0 0.00 0.00 0.00 77 1014.2
20260507192805 11 191 1.6 8.0 0.00 0.00 0.00 77 1014.2
20260507192604 11 212 0.0 8.0 0.00 0.00 0.00 77 1014.2
20260507192405 11 86 1.6 8.0 0.00 0.00 0.00 76 1014.3
20260507192204 11 278 0.0 3.2 0.00 0.00 0.00 76 1014.4
20260507192006 11 231 1.6 3.2 0.00 0.00 0.00 75 1014.4
20260507191803 11 209 1.6 3.2 0.00 0.00 0.00 75 1014.4
20260507191605 12 213 0.0 3.2 0.00 0.00 0.00 75 1014.3
20260507191404 12 220 0.0 3.2 0.00 0.00 0.00 74 1014.3
20260507191205 12 227 1.6 6.4 0.00 0.00 0.00 74 1014.3
20260507190805 12 250 1.6 6.4 0.00 0.00 0.00 74 1014.2
20260507190604 12 240 1.6 6.4 0.00 0.00 0.00 73 1014.2
20260507190405 12 250 1.6 4.8 0.00 0.00 0.00 73 1014.2
20260507190204 12 262 1.6 4.8 0.00 0.00 0.00 73 1014.1
20260507190010 12 256 0.0 3.2 0.00 0.00 0.00 73 1014.1
20260507185804 12 231 0.0 3.2 0.00 0.00 0.00 72 1014.0
20260507185604 12 162 0.0 3.2 0.00 0.00 0.00 72 1014.0
20260507185403 12 208 0.0 4.8 0.00 0.00 0.00 72 1014.1
20260507185203 12 218 0.0 4.8 0.00 0.00 0.00 72 1014.0
20260507185004 12 18 0.0 4.8 0.00 0.00 0.00 72 1014.0
20260507184604 12 262 0.0 4.8 0.00 0.00 0.00 71 1014.0
20260507184404 12 255 3.2 4.8 0.00 0.00 0.00 70 1014.0
20260507184204 12 254 1.6 4.8 0.00 0.00 0.00 69 1014.0
20260507184004 12 275 1.6 4.8 0.00 0.00 0.00 68 1013.9
20260507183804 13 268 0.0 4.8 0.00 0.00 0.00 67 1014.0
20260507183604 13 259 0.0 6.4 0.00 0.00 0.00 66 1013.9
20260507183407 13 283 0.0 6.4 0.00 0.00 0.00 65 1013.8
20260507183203 13 95 1.6 6.4 0.00 0.00 0.00 65 1014.0
20260507183006 13 212 0.0 9.7 0.00 0.00 0.00 63 1013.8
20260507182804 13 248 3.2 9.7 0.00 0.00 0.00 62 1013.9
20260507182404 13 167 3.2 9.7 0.00 0.00 0.00 61 1013.8
20260507182206 13 148 0.0 6.4 0.00 0.00 0.00 61 1013.8
20260507182005 13 153 3.2 8.0 0.00 0.00 0.00 61 1013.9
20260507181603 13 166 1.6 8.0 0.00 0.00 0.00 60 1013.7
20260507181405 13 153 4.8 8.0 0.00 0.00 0.00 60 1013.7
20260507181203 13 137 3.2 8.0 0.00 0.00 0.00 60 1013.7
20260507181006 13 240 1.6 6.4 0.00 0.00 0.00 60 1013.7
20260507180605 13 207 1.6 6.4 0.00 0.00 0.00 60 1013.7
20260507180403 13 153 1.6 6.4 0.00 0.00 0.00 60 1013.7
20260507180206 13 160 3.2 6.4 0.00 0.00 0.00 60 1013.7
20260507180006 13 160 3.2 6.4 0.00 0.00 0.00 59 1013.7
20260507175602 13 141 1.6 8.0 0.00 0.00 0.00 59 1013.8
20260507175403 13 134 1.6 11.3 0.00 0.00 0.00 59 1013.7
20260507175202 13 143 3.2 11.3 0.00 0.00 0.00 59 1013.7
20260507175003 13 199 3.2 11.3 0.00 0.00 0.00 59 1013.6
20260507174602 13 191 3.2 8.0 0.00 0.00 0.00 59 1013.8
20260507174202 13 173 3.2 11.3 0.00 0.00 0.00 58 1013.7
20260507173803 13 174 3.2 12.9 0.00 0.00 0.00 58 1013.7
20260507173605 13 248 6.4 12.9 0.00 0.00 0.00 58 1013.7
20260507173403 13 143 4.8 12.9 0.00 0.00 0.00 58 1013.7
20260507173204 13 199 8.0 12.9 0.00 0.00 0.00 57 1013.7
20260507173004 13 169 6.4 17.7 0.00 0.00 0.00 57 1013.7
20260507172805 13 158 6.4 17.7 0.00 0.00 0.00 57 1013.7
20260507172602 13 127 4.8 17.7 0.00 0.00 0.00 56 1013.7
20260507172404 13 219 8.0 17.7 0.00 0.00 0.00 56 1013.7
20260507172202 13 185 6.4 16.1 0.00 0.00 0.00 56 1013.6
20260507172005 13 172 9.7 16.1 0.00 0.00 0.00 56 1013.6
20260507171803 14 129 9.7 16.1 0.00 0.00 0.00 56 1013.6
20260507171604 14 153 8.0 16.1 0.00 0.00 0.00 56 1013.6
20260507171403 14 150 4.8 11.3 0.00 0.00 0.00 56 1013.6
20260507171204 14 175 3.2 9.7 0.00 0.00 0.00 56 1013.7
20260507171003 14 161 4.8 11.3 0.00 0.00 0.00 56 1013.6
20260507170804 14 158 3.2 17.7 0.00 0.00 0.00 56 1013.6
20260507170602 14 152 4.8 20.9 0.00 0.00 0.00 56 1013.6
20260507170404 14 162 4.8 20.9 0.00 0.00 0.00 55 1013.6
20260507170203 14 139 8.0 20.9 0.00 0.00 0.00 55 1013.6
20260507170009 14 159 11.3 20.9 0.00 0.00 0.00 54 1013.7
20260507165802 14 172 6.4 17.7 0.00 0.00 0.00 54 1013.7
20260507165403 14 226 8.0 17.7 0.00 0.00 0.00 53 1013.6
20260507165202 14 128 4.8 14.5 0.00 0.00 0.00 54 1013.7
20260507165003 14 152 3.2 14.5 0.00 0.00 0.00 53 1013.7
20260507164803 14 164 6.4 14.5 0.00 0.00 0.00 53 1013.7
20260507164602 14 155 4.8 14.5 0.00 0.00 0.00 53 1013.6
20260507164402 14 223 6.4 14.5 0.00 0.00 0.00 54 1013.6
20260507164203 14 160 8.0 14.5 0.00 0.00 0.00 53 1013.7
20260507164005 14 162 8.0 14.5 0.00 0.00 0.00 53 1013.7
20260507163804 14 154 3.2 11.3 0.00 0.00 0.00 54 1013.7
20260507163604 14 181 4.8 11.3 0.00 0.00 0.00 53 1013.6
20260507163403 14 125 3.2 11.3 0.00 0.00 0.00 53 1013.7
20260507163204 14 165 3.2 11.3 0.00 0.00 0.00 54 1013.6
20260507163003 14 121 3.2 12.9 0.00 0.00 0.00 54 1013.7
20260507162804 14 200 3.2 12.9 0.00 0.00 0.00 54 1013.7
20260507162404 14 191 4.8 12.9 0.00 0.00 0.00 54 1013.7
20260507162005 14 127 6.4 12.9 0.00 0.00 0.00 54 1013.7
20260507161803 14 148 4.8 12.9 0.00 0.00 0.00 55 1013.7
20260507161604 14 172 4.8 16.1 0.00 0.00 0.00 55 1013.8
20260507161403 14 169 6.4 16.1 0.00 0.00 0.00 55 1013.8
20260507161204 13 98 6.4 16.1 0.00 0.00 0.00 55 1013.8
20260507161004 13 203 6.4 16.1 0.00 0.00 0.00 56 1013.7
20260507160804 13 138 4.8 9.7 0.00 0.00 0.00 56 1013.8
20260507160602 13 174 4.8 9.7 0.00 0.00 0.00 56 1013.7
20260507160404 13 148 4.8 9.7 0.00 0.00 0.00 55 1013.8
20260507160203 13 151 6.4 9.7 0.00 0.00 0.00 55 1013.8
20260507160008 13 165 3.2 9.7 0.00 0.00 0.00 55 1013.8
20260507155604 13 99 3.2 12.9 0.00 0.00 0.00 55 1013.8
20260507155402 13 123 3.2 12.9 0.00 0.00 0.00 55 1013.8
20260507155204 14 144 6.4 12.9 0.00 0.00 0.00 54 1013.8
20260507154804 14 179 3.2 11.3 0.00 0.00 0.00 54 1013.8
20260507154603 14 244 4.8 11.3 0.00 0.00 0.00 54 1013.8
20260507154405 14 146 6.4 12.9 0.00 0.00 0.00 54 1013.8
20260507153603 14 181 4.8 14.5 0.00 0.00 0.00 54 1013.9
20260507153404 14 161 8.0 14.5 0.00 0.00 0.00 54 1013.9
20260507153203 14 150 6.4 17.7 0.00 0.00 0.00 54 1014.0
20260507152802 14 148 4.8 17.7 0.00 0.00 0.00 55 1013.9
20260507152603 14 175 6.4 17.7 0.00 0.00 0.00 55 1013.9
20260507152402 15 155 9.7 17.7 0.00 0.00 0.00 56 1013.9
20260507152202 15 148 6.4 16.1 0.00 0.00 0.00 56 1013.9
20260507152003 15 174 3.2 12.9 0.00 0.00 0.00 57 1013.9
20260507151803 15 188 4.8 12.9 0.00 0.00 0.00 56 1013.9
20260507151402 15 177 4.8 11.3 0.00 0.00 0.00 56 1013.9
20260507151202 15 155 6.4 11.3 0.00 0.00 0.00 56 1014.0
20260507151003 15 96 1.6 16.1 0.00 0.00 0.00 56 1013.9
20260507150602 15 141 6.4 16.1 0.00 0.00 0.00 56 1013.9
20260507150203 15 143 8.0 16.1 0.00 0.00 0.00 56 1013.9
20260507150007 15 155 4.8 12.9 0.00 0.00 0.00 56 1014.0
20260507145804 15 142 6.4 14.5 0.00 0.00 0.00 56 1014.0
20260507145602 15 176 8.0 14.5 0.00 0.00 0.00 56 1014.0
20260507145405 15 112 6.4 14.5 0.00 0.00 0.00 55 1014.0
20260507145202 15 149 6.4 14.5 0.00 0.00 0.00 55 1014.0
20260507145003 15 198 6.4 14.5 0.00 0.00 0.00 55 1013.9
20260507144802 15 167 8.0 14.5 0.00 0.00 0.00 54 1014.0
20260507144602 15 206 4.8 14.5 0.00 0.00 0.00 54 1014.0
20260507144403 15 154 6.4 14.5 0.00 0.00 0.00 54 1014.0
20260507144202 15 178 8.0 14.5 0.00 0.00 0.00 54 1014.1
20260507144004 15 150 8.0 12.9 0.00 0.00 0.00 54 1014.0
20260507143802 15 218 6.4 12.9 0.00 0.00 0.00 55 1014.1
20260507143605 15 134 6.4 12.9 0.00 0.00 0.00 55 1014.2
20260507143404 15 205 6.4 11.3 0.00 0.00 0.00 56 1014.2
20260507143202 15 133 3.2 11.3 0.00 0.00 0.00 56 1014.2
20260507143005 15 209 3.2 11.3 0.00 0.00 0.00 57 1014.2
20260507142802 14 169 3.2 12.9 0.00 0.00 0.00 56 1014.2
20260507142602 15 142 6.4 12.9 0.00 0.00 0.00 56 1014.4
20260507142403 15 176 6.4 12.9 0.00 0.00 0.00 55 1014.3
20260507142202 15 138 6.4 12.9 0.00 0.00 0.00 54 1014.4
20260507142003 15 148 6.4 12.9 0.00 0.00 0.00 54 1014.5
20260507141802 15 217 6.4 12.9 0.00 0.00 0.00 55 1014.5
20260507141602 15 158 3.2 12.9 0.00 0.00 0.00 59 1014.3
20260507141402 14 190 6.4 12.9 0.00 0.00 0.00 59 1014.5
20260507141202 14 174 3.2 14.5 0.00 0.00 0.00 58 1014.5
20260507141003 14 132 6.4 14.5 0.00 0.00 0.00 58 1014.5
20260507140802 15 174 6.4 14.5 0.00 0.00 0.00 57 1014.6
20260507140603 15 143 4.8 14.5 0.00 0.00 0.00 57 1014.7
20260507140403 14 171 6.4 14.5 0.00 0.00 0.00 57 1014.6
20260507140202 15 150 6.4 12.9 0.00 0.00 0.00 56 1014.7
20260507135803 15 165 6.4 12.9 0.00 0.00 0.00 58 1014.6
20260507135603 14 181 3.2 14.5 0.00 0.00 0.00 58 1014.7
20260507135202 14 172 6.4 14.5 0.00 0.00 0.00 58 1014.7
20260507135003 14 153 8.0 14.5 0.00 0.00 0.00 57 1014.8
20260507134602 14 122 4.8 14.5 0.00 0.00 0.00 58 1014.7
20260507134402 14 160 4.8 14.5 0.00 0.00 0.00 59 1014.7
20260507134203 14 119 6.4 14.5 0.00 0.00 0.00 58 1014.8
20260507133803 14 162 8.0 14.5 0.00 0.00 0.00 58 1014.8
20260507133403 14 172 4.8 12.9 0.00 0.00 0.00 59 1014.8
20260507133203 14 155 4.8 12.9 0.00 0.00 0.00 58 1014.9
20260507133005 14 148 6.4 12.9 0.00 0.00 0.00 59 1014.9
20260507132802 14 137 3.2 12.9 0.00 0.00 0.00 60 1015.0
20260507132604 14 153 6.4 12.9 0.00 0.00 0.00 59 1015.0
20260507132402 14 136 6.4 12.9 0.00 0.00 0.00 59 1014.9
20260507132003 14 276 4.8 11.3 0.00 0.00 0.00 59 1014.9
20260507131803 14 155 6.4 14.5 0.00 0.00 0.00 60 1015.0
20260507131602 14 152 3.2 14.5 0.00 0.00 0.00 60 1014.9
20260507131403 13 154 6.4 14.5 0.00 0.00 0.00 60 1014.9
20260507131202 13 167 3.2 14.5 0.00 0.00 0.00 59 1015.0
20260507131004 13 232 6.4 14.5 0.00 0.00 0.00 58 1015.0
20260507130802 13 183 6.4 11.3 0.00 0.00 0.00 59 1015.1
20260507130402 13 144 3.2 14.5 0.00 0.00 0.00 60 1015.0
20260507130203 13 117 3.2 14.5 0.00 0.00 0.00 61 1015.1
20260507130006 13 154 6.4 14.5 0.00 0.00 0.00 60 1015.1
20260507125802 13 147 6.4 12.9 0.00 0.00 0.00 60 1015.1
20260507125602 13 141 4.8 14.5 0.00 0.00 0.00 60 1015.0
20260507125402 13 162 6.4 14.5 0.00 0.00 0.00 60 1015.2
20260507125002 13 156 8.0 17.7 0.00 0.00 0.00 60 1015.0
20260507124802 13 184 3.2 17.7 0.00 0.00 0.00 61 1015.1
20260507124602 13 213 8.0 17.7 0.00 0.00 0.00 60 1015.1
20260507124404 13 166 6.4 16.1 0.00 0.00 0.00 61 1015.3
20260507124202 13 167 8.0 16.1 0.00 0.00 0.00 61 1015.3
20260507124003 13 176 4.8 12.9 0.00 0.00 0.00 62 1015.3
20260507123603 13 165 6.4 12.9 0.00 0.00 0.00 63 1015.2
20260507123402 13 161 4.8 12.9 0.00 0.00 0.00 63 1015.1
20260507123003 12 144 4.8 14.5 0.00 0.00 0.00 63 1015.3
20260507122805 12 150 3.2 14.5 0.00 0.00 0.00 65 1015.3
20260507122602 12 158 3.2 14.5 0.00 0.00 0.00 66 1015.2
20260507122404 12 129 3.2 14.5 0.00 0.00 0.00 66 1015.3
20260507122202 12 146 4.8 11.3 0.00 0.00 0.00 67 1015.3
20260507122005 12 133 3.2 11.3 0.00 0.00 0.00 68 1015.3
20260507121802 12 140 6.4 11.3 0.00 0.00 0.00 68 1015.3
20260507121402 12 216 6.4 14.5 0.00 0.00 0.00 68 1015.3
20260507121204 12 128 6.4 14.5 0.00 0.00 0.00 67 1015.3
20260507121007 12 148 6.4 14.5 0.00 0.00 0.00 68 1015.3
20260507120804 12 146 6.4 14.5 0.00 0.00 0.00 68 1015.4
20260507120602 11 184 4.8 12.9 0.00 0.00 0.00 69 1015.3
20260507120404 11 164 4.8 12.9 0.00 0.00 0.00 69 1015.3
20260507120202 11 127 3.2 12.9 0.00 0.00 0.00 69 1015.3
20260507120007 11 153 4.8 12.9 0.00 0.00 0.00 69 1015.3
20260507115803 11 208 1.6 12.9 0.00 0.00 0.00 70 1015.4
20260507115402 11 138 3.2 9.7 0.00 0.00 0.00 70 1015.3
20260507115003 11 150 3.2 9.7 0.00 0.00 0.00 70 1015.4
20260507114802 11 162 4.8 9.7 0.00 0.00 0.00 70 1015.4
20260507114604 11 146 6.4 9.7 0.00 0.00 0.00 71 1015.4
20260507114402 11 151 3.2 8.0 0.00 0.00 0.00 72 1015.4
20260507114204 11 158 3.2 8.0 0.00 0.00 0.00 72 1015.5
20260507114003 11 142 3.2 8.0 0.00 0.00 0.00 73 1015.5
20260507113803 11 115 1.6 8.0 0.00 0.00 0.00 73 1015.5
20260507113603 11 190 3.2 11.3 0.00 0.00 0.00 73 1015.5
20260507113404 10 124 1.6 11.3 0.00 0.00 0.00 74 1015.4
20260507113202 10 123 3.2 11.3 0.00 0.00 0.00 74 1015.5
20260507113006 10 153 4.8 11.3 0.00 0.00 0.00 74 1015.5
20260507112803 10 193 6.4 11.3 0.00 0.00 0.00 74 1015.5
20260507112402 10 197 3.2 9.7 0.00 0.00 0.00 74 1015.5
20260507112203 10 155 4.8 9.7 0.00 0.00 0.00 74 1015.5
20260507112003 10 165 4.8 11.3 0.00 0.00 0.00 74 1015.6
20260507111803 10 124 4.8 12.9 0.00 0.00 0.00 75 1015.6
20260507111602 10 156 3.2 12.9 0.00 0.00 0.00 76 1015.6
20260507111404 10 153 4.8 12.9 0.00 0.00 0.00 75 1015.6
20260507111202 10 190 6.4 12.9 0.00 0.00 0.00 76 1015.6
20260507111005 10 169 0.0 8.0 0.00 0.00 0.00 78 1015.6
20260507110603 10 139 3.2 9.7 0.00 0.00 0.00 77 1015.6
20260507110402 10 150 4.8 9.7 0.00 0.00 0.00 77 1015.6
20260507110202 10 138 4.8 9.7 0.00 0.00 0.00 77 1015.7
20260507105803 10 169 4.8 9.7 0.00 0.00 0.00 78 1015.7
20260507105202 9 122 1.6 12.9 0.00 0.00 0.00 79 1015.7
20260507105004 9 183 3.2 12.9 0.00 0.00 0.00 79 1015.8
20260507104802 9 155 3.2 12.9 0.00 0.00 0.00 79 1015.8
20260507104602 9 155 6.4 12.9 0.00 0.00 0.00 79 1015.8
20260507104402 9 165 3.2 9.7 0.00 0.00 0.00 79 1015.8
20260507104202 9 110 1.6 9.7 0.00 0.00 0.00 80 1015.8
20260507103802 9 101 4.8 12.9 0.00 0.00 0.00 80 1015.7
20260507103602 9 126 4.8 12.9 0.00 0.00 0.00 80 1015.8
20260507103403 9 155 6.4 12.9 0.00 0.00 0.00 80 1015.7
20260507103202 8 75 4.8 9.7 0.00 0.00 0.00 81 1015.8
20260507103003 8 86 4.8 9.7 0.00 0.00 0.00 81 1015.7
20260507102803 8 162 1.6 12.9 0.00 0.00 0.00 81 1015.8
20260507102603 8 163 3.2 12.9 0.00 0.00 0.00 81 1015.8
20260507102404 8 148 3.2 12.9 0.00 0.00 0.00 81 1015.8
20260507102203 8 150 4.8 12.9 0.00 0.00 0.00 81 1015.7
20260507102006 8 170 4.8 9.7 0.00 0.00 0.00 81 1015.8
20260507101802 8 133 1.6 9.7 0.00 0.00 0.00 82 1015.7
20260507101603 8 172 3.2 9.7 0.00 0.00 0.00 82 1015.6
20260507101004 8 205 1.6 6.4 0.00 0.00 0.00 82 1015.7
20260507100803 8 203 1.6 6.4 0.00 0.00 0.00 82 1015.7
20260507100602 8 133 3.2 6.4 0.00 0.00 0.00 82 1015.8
20260507100404 8 146 3.2 8.0 0.00 0.00 0.00 82 1015.8
20260507100202 8 136 1.6 8.0 0.00 0.00 0.00 83 1015.8
20260507100007 8 124 0.0 8.0 0.00 0.00 0.00 83 1015.8
20260507095803 8 169 3.2 8.0 0.00 0.00 0.00 83 1015.9
20260507095602 8 185 1.6 11.3 0.00 0.00 0.00 83 1015.9
20260507095402 8 172 1.6 11.3 0.00 0.00 0.00 83 1015.8
20260507095202 8 120 3.2 11.3 0.00 0.00 0.00 83 1015.8
20260507095003 8 139 3.2 11.3 0.00 0.00 0.00 83 1015.8
20260507094803 8 131 4.8 11.3 0.00 0.00 0.00 82 1015.8
20260507094603 8 123 4.8 9.7 0.00 0.00 0.00 82 1015.9
20260507094403 8 224 4.8 9.7 0.00 0.00 0.00 82 1015.9
20260507094203 8 57 3.2 8.0 0.00 0.00 0.00 82 1015.9
20260507094003 8 120 1.6 6.4 0.00 0.00 0.00 82 1015.9
20260507093603 8 158 3.2 6.4 0.00 0.00 0.00 82 1015.8
20260507093403 8 21 1.6 6.4 0.00 0.00 0.00 82 1015.9
20260507093202 8 133 3.2 9.7 0.00 0.00 0.00 82 1015.9
20260507093004 8 154 3.2 9.7 0.00 0.00 0.00 82 1015.9
20260507092802 8 169 3.2 9.7 0.00 0.00 0.00 82 1015.8
20260507092404 8 170 4.8 8.0 0.00 0.00 0.00 82 1015.8
20260507092204 8 167 3.2 8.0 0.00 0.00 0.00 82 1015.9
20260507092006 8 174 4.8 8.0 0.00 0.00 0.00 82 1015.9
20260507091803 8 133 3.2 8.0 0.00 0.00 0.00 83 1015.8
20260507091604 8 201 1.6 8.0 0.00 0.00 0.00 83 1015.9
20260507091403 8 122 1.6 8.0 0.00 0.00 0.00 83 1015.7
20260507091204 8 151 1.6 8.0 0.00 0.00 0.00 83 1015.8
20260507091004 8 111 4.8 8.0 0.00 0.00 0.00 83 1015.8
20260507090803 8 132 1.6 8.0 0.00 0.00 0.00 83 1015.8
20260507090404 8 158 3.2 9.7 0.00 0.00 0.00 83 1015.7
20260507090203 7 168 4.8 9.7 0.00 0.00 0.00 84 1015.7
20260507090006 7 150 3.2 9.7 0.00 0.00 0.00 84 1015.7
20260507085803 7 171 4.8 9.7 0.00 0.00 0.00 84 1015.7
20260507085203 7 167 3.2 11.3 0.00 0.00 0.00 84 1015.7
20260507085004 7 205 1.6 11.3 0.00 0.00 0.00 84 1015.7
20260507084802 7 116 4.8 11.3 0.00 0.00 0.00 84 1015.8
20260507084603 7 164 6.4 11.3 0.00 0.00 0.00 84 1015.7
20260507084402 7 90 4.8 11.3 0.00 0.00 0.00 84 1015.8
20260507083802 7 136 1.6 8.0 0.00 0.00 0.00 84 1015.8
20260507083602 7 119 3.2 8.0 0.00 0.00 0.00 85 1015.8
20260507083402 7 211 4.8 9.7 0.00 0.00 0.00 84 1015.8
20260507083202 7 88 1.6 9.7 0.00 0.00 0.00 84 1015.8
20260507083004 7 85 3.2 9.7 0.00 0.00 0.00 84 1015.8
20260507082803 7 147 6.4 9.7 0.00 0.00 0.00 84 1015.8
20260507082603 7 152 4.8 9.7 0.00 0.00 0.00 84 1015.8
20260507082403 7 123 4.8 9.7 0.00 0.00 0.00 84 1015.8
20260507082203 7 129 1.6 6.4 0.00 0.00 0.00 84 1015.8
20260507082004 7 132 0.0 6.4 0.00 0.00 0.00 84 1015.8
20260507081604 7 156 1.6 6.4 0.00 0.00 0.00 84 1015.8
20260507081403 7 120 1.6 8.0 0.00 0.00 0.00 85 1015.8
20260507081204 7 162 0.0 9.7 0.00 0.00 0.00 85 1015.7
20260507081004 7 68 3.2 9.7 0.00 0.00 0.00 85 1015.8
20260507080603 7 153 4.8 9.7 0.00 0.00 0.00 84 1015.8
20260507080202 7 161 3.2 14.5 0.00 0.00 0.00 84 1015.9
20260507075803 7 177 6.4 14.5 0.00 0.00 0.00 84 1015.8
20260507075603 7 210 4.8 14.5 0.00 0.00 0.00 84 1015.8
20260507075402 7 199 6.4 14.5 0.00 0.00 0.00 84 1015.8
20260507075203 7 173 4.8 14.5 0.00 0.00 0.00 84 1015.8
20260507075003 7 109 4.8 14.5 0.00 0.00 0.00 84 1015.8
20260507074802 7 146 4.8 14.5 0.00 0.00 0.00 84 1015.8
20260507074602 7 173 3.2 11.3 0.00 0.00 0.00 84 1015.8
20260507074403 7 129 4.8 11.3 0.00 0.00 0.00 84 1015.8
20260507074203 7 153 3.2 11.3 0.00 0.00 0.00 85 1015.8
20260507074003 7 148 6.4 11.3 0.00 0.00 0.00 84 1015.8
20260507073801 7 144 1.6 11.3 0.00 0.00 0.00 85 1015.7
20260507073603 7 149 3.2 12.9 0.00 0.00 0.00 85 1015.7
20260507073203 7 197 3.2 12.9 0.00 0.00 0.00 85 1015.6
20260507073004 7 111 4.8 12.9 0.00 0.00 0.00 85 1015.6
20260507072603 7 180 3.2 11.3 0.00 0.00 0.00 85 1015.6
20260507072403 7 123 4.8 11.3 0.00 0.00 0.00 85 1015.7
20260507072003 7 171 4.8 12.9 0.00 0.00 0.00 85 1015.6
20260507071803 7 143 3.2 12.9 0.00 0.00 0.00 85 1015.6
20260507071602 7 116 3.2 12.9 0.00 0.00 0.00 85 1015.6
20260507071405 7 172 8.0 12.9 0.00 0.00 0.00 85 1015.6
20260507071005 7 153 3.2 12.9 0.00 0.00 0.00 85 1015.6
20260507070802 7 180 4.8 9.7 0.00 0.00 0.00 85 1015.7
20260507070402 7 171 1.6 8.0 0.00 0.00 0.00 85 1015.6
20260507070204 7 165 1.6 8.0 0.00 0.00 0.00 85 1015.6
20260507070009 7 205 3.2 9.7 0.00 0.00 0.00 85 1015.6
20260507065801 7 170 4.8 12.9 0.00 0.00 0.00 85 1015.5
20260507065602 7 136 1.6 12.9 0.00 0.00 0.00 85 1015.5
20260507065401 6 161 3.2 12.9 0.00 0.00 0.00 85 1015.5
20260507065201 7 155 4.8 12.9 0.00 0.00 0.00 85 1015.5
20260507065003 6 120 4.8 12.9 0.00 0.00 0.00 85 1015.6
20260507064801 6 238 3.2 11.3 0.00 0.00 0.00 85 1015.6
20260507064602 6 149 3.2 8.0 0.00 0.00 0.00 85 1015.5
20260507064401 6 155 1.6 8.0 0.00 0.00 0.00 85 1015.5
20260507064201 6 150 1.6 8.0 0.00 0.00 0.00 85 1015.5
20260507064002 6 175 3.2 8.0 0.00 0.00 0.00 85 1015.5
20260507063601 6 168 1.6 8.0 0.00 0.00 0.00 85 1015.5
20260507063202 6 138 3.2 8.0 0.00 0.00 0.00 85 1015.6
20260507063003 6 138 1.6 9.7 0.00 0.00 0.00 85 1015.5
20260507062804 6 153 1.6 9.7 0.00 0.00 0.00 86 1015.6
20260507062601 6 122 1.6 9.7 0.00 0.00 0.00 86 1015.7
20260507062403 6 160 1.6 9.7 0.00 0.00 0.00 85 1015.6
20260507062201 6 97 3.2 9.7 0.00 0.00 0.00 86 1015.5
20260507061801 6 136 3.2 9.7 0.00 0.00 0.00 85 1015.6
20260507061603 6 158 3.2 8.0 0.00 0.00 0.00 86 1015.5
20260507061401 6 151 3.2 8.0 0.00 0.00 0.00 85 1015.5
20260507061203 6 169 3.2 8.0 0.00 0.00 0.00 85 1015.6
20260507060602 6 150 3.2 8.0 0.00 0.00 0.00 86 1015.6
20260507060403 6 115 1.6 8.0 0.00 0.00 0.00 86 1015.5
20260507060202 6 133 3.2 8.0 0.00 0.00 0.00 85 1015.5
20260507060007 6 147 4.8 8.0 0.00 0.00 0.00 85 1015.5
20260507055801 6 131 1.6 8.0 0.00 0.00 0.00 86 1015.6
20260507055401 6 120 3.2 8.0 0.00 0.00 0.00 85 1015.4
20260507055201 6 207 3.2 8.0 0.00 0.00 0.00 85 1015.4
20260507055002 6 181 3.2 8.0 0.00 0.00 0.00 85 1015.5
20260507054801 6 179 3.2 6.4 0.00 0.00 0.00 85 1015.4
20260507054601 6 134 1.6 4.8 0.00 0.00 0.00 86 1015.4
20260507054201 6 178 1.6 6.4 0.00 0.00 0.00 85 1015.4
20260507054002 6 114 3.2 6.4 0.00 0.00 0.00 85 1015.4
20260507053803 6 96 3.2 6.4 0.00 0.00 0.00 85 1015.3
20260507053601 6 134 0.0 4.8 0.00 0.00 0.00 85 1015.4
20260507053403 6 129 1.6 4.8 0.00 0.00 0.00 85 1015.4
20260507053201 6 41 0.0 4.8 0.00 0.00 0.00 85 1015.4
20260507053005 6 119 3.2 4.8 0.00 0.00 0.00 85 1015.4
20260507052801 6 167 0.0 6.4 0.00 0.00 0.00 85 1015.4
20260507052601 6 137 0.0 8.0 0.00 0.00 0.00 85 1015.3
20260507052403 6 134 0.0 8.0 0.00 0.00 0.00 85 1015.3
20260507052201 6 73 1.6 8.0 0.00 0.00 0.00 85 1015.3
20260507052003 6 154 1.6 8.0 0.00 0.00 0.00 85 1015.3
20260507051801 6 148 3.2 8.0 0.00 0.00 0.00 86 1015.3
20260507051603 6 145 1.6 6.4 0.00 0.00 0.00 86 1015.3
20260507051401 6 160 3.2 6.4 0.00 0.00 0.00 85 1015.3
20260507051203 6 131 1.6 4.8 0.00 0.00 0.00 86 1015.2
20260507051003 6 167 1.6 4.8 0.00 0.00 0.00 86 1015.3
20260507050803 6 154 1.6 6.4 0.00 0.00 0.00 86 1015.3
20260507050602 6 117 0.0 6.4 0.00 0.00 0.00 86 1015.2
20260507050403 6 155 1.6 6.4 0.00 0.00 0.00 86 1015.2
20260507050007 6 150 1.6 6.4 0.00 0.00 0.00 86 1015.2
20260507045801 6 177 0.0 4.8 0.00 0.00 0.00 86 1015.2
20260507045601 6 107 1.6 4.8 0.00 0.00 0.00 86 1015.2
20260507045402 6 72 0.0 4.8 0.00 0.00 0.00 86 1015.2
20260507045201 6 123 1.6 4.8 0.00 0.00 0.00 86 1015.1
20260507045002 6 160 1.6 4.8 0.00 0.00 0.00 86 1015.1
20260507044801 6 150 1.6 4.8 0.00 0.00 0.00 86 1015.1
20260507044601 6 156 0.0 4.8 0.00 0.00 0.00 86 1015.1
20260507044201 6 136 1.6 4.8 0.00 0.00 0.00 86 1015.2
20260507044004 6 134 1.6 4.8 0.00 0.00 0.00 86 1015.2
20260507043602 6 139 0.0 4.8 0.00 0.00 0.00 86 1015.2
20260507043401 6 129 1.6 4.8 0.00 0.00 0.00 86 1015.1
20260507043002 5 115 1.6 4.8 0.00 0.00 0.00 86 1015.1
20260507042803 5 173 1.6 4.8 0.00 0.00 0.00 86 1015.2
20260507042601 5 146 1.6 4.8 0.00 0.00 0.00 86 1015.2
20260507042402 5 182 1.6 4.8 0.00 0.00 0.00 86 1015.1
20260507042201 5 141 0.0 3.2 0.00 0.00 0.00 86 1015.2
20260507041801 5 131 1.6 3.2 0.00 0.00 0.00 86 1015.2
20260507041603 5 115 0.0 1.6 0.00 0.00 0.00 86 1015.2
20260507041401 5 109 0.0 0.0 0.00 0.00 0.00 86 1015.2
20260507041203 5 142 0.0 0.0 0.00 0.00 0.00 86 1015.2
20260507040803 5 61 0.0 0.0 0.00 0.00 0.00 86 1015.1
20260507040402 5 127 0.0 0.0 0.00 0.00 0.00 86 1015.2
20260507040201 5 126 0.0 1.6 0.00 0.00 0.00 86 1015.1
20260507040007 5 114 0.0 1.6 0.00 0.00 0.00 86 1015.1
20260507035601 5 172 0.0 1.6 0.00 0.00 0.00 86 1015.2
20260507035401 5 115 0.0 1.6 0.00 0.00 0.00 86 1015.1
20260507035201 5 117 0.0 1.6 0.00 0.00 0.00 86 1015.2
20260507035002 5 96 0.0 1.6 0.00 0.00 0.00 86 1015.2
20260507034801 5 101 0.0 1.6 0.00 0.00 0.00 86 1015.2
20260507034601 5 87 0.0 0.0 0.00 0.00 0.00 86 1015.3
20260507034401 5 113 0.0 1.6 0.00 0.00 0.00 85 1015.3
20260507034201 5 83 0.0 1.6 0.00 0.00 0.00 85 1015.3
20260507034002 5 83 0.0 1.6 0.00 0.00 0.00 85 1015.3
20260507033801 5 83 0.0 3.2 0.00 0.00 0.00 85 1015.3
20260507033603 5 126 0.0 4.8 0.00 0.00 0.00 85 1015.2
20260507033403 5 124 0.0 4.8 0.00 0.00 0.00 85 1015.2
20260507033203 5 146 0.0 4.8 0.00 0.00 0.00 85 1015.3
20260507033002 5 146 1.6 4.8 0.00 0.00 0.00 85 1015.3
20260507032803 5 115 0.0 4.8 0.00 0.00 0.00 85 1015.2
20260507032601 5 120 0.0 4.8 0.00 0.00 0.00 85 1015.3
20260507032402 5 117 0.0 4.8 0.00 0.00 0.00 85 1015.2
20260507032201 5 102 0.0 4.8 0.00 0.00 0.00 85 1015.1
20260507032003 5 58 0.0 4.8 0.00 0.00 0.00 85 1015.2
20260507031801 5 154 1.6 4.8 0.00 0.00 0.00 85 1015.2
20260507031602 5 115 0.0 3.2 0.00 0.00 0.00 85 1015.2
20260507031401 5 112 0.0 3.2 0.00 0.00 0.00 85 1015.2
20260507030803 5 127 0.0 0.0 0.00 0.00 0.00 85 1015.3
20260507030601 5 136 0.0 0.0 0.00 0.00 0.00 85 1015.4
20260507030402 5 147 0.0 0.0 0.00 0.00 0.00 85 1015.3
20260507030201 5 147 0.0 0.0 0.00 0.00 0.00 85 1015.4
20260507025801 5 127 0.0 1.6 0.00 0.00 0.00 85 1015.4
20260507025603 5 143 0.0 1.6 0.00 0.00 0.00 85 1015.4
20260507025203 6 136 0.0 1.6 0.00 0.00 0.00 84 1015.4
20260507025002 6 117 0.0 1.6 0.00 0.00 0.00 84 1015.3
20260507024802 6 122 0.0 1.6 0.00 0.00 0.00 84 1015.4
20260507024402 6 139 0.0 3.2 0.00 0.00 0.00 84 1015.4
20260507024201 6 140 0.0 3.2 0.00 0.00 0.00 84 1015.5
20260507024004 6 124 0.0 3.2 0.00 0.00 0.00 84 1015.3
20260507023801 6 103 0.0 3.2 0.00 0.00 0.00 85 1015.4
20260507023603 6 106 1.6 3.2 0.00 0.00 0.00 85 1015.4
20260507023401 6 136 0.0 3.2 0.00 0.00 0.00 85 1015.5
20260507023003 6 148 0.0 3.2 0.00 0.00 0.00 85 1015.4
20260507022803 6 128 0.0 0.0 0.00 0.00 0.00 85 1015.4
20260507022601 6 120 0.0 0.0 0.00 0.00 0.00 85 1015.4
20260507022403 6 120 0.0 0.0 0.00 0.00 0.00 85 1015.4
20260507022201 6 139 0.0 0.0 0.00 0.00 0.00 85 1015.4
20260507022003 6 139 0.0 0.0 0.00 0.00 0.00 85 1015.4
20260507021602 6 103 0.0 0.0 0.00 0.00 0.00 84 1015.4
20260507021401 6 124 0.0 0.0 0.00 0.00 0.00 84 1015.4
20260507020803 6 98 0.0 1.6 0.00 0.00 0.00 84 1015.3
20260507020601 6 98 0.0 6.4 0.00 0.00 0.00 84 1015.4
20260507020403 6 98 0.0 6.4 0.00 0.00 0.00 84 1015.3
20260507020201 6 138 0.0 6.4 0.00 0.00 0.00 84 1015.4
20260507020006 6 139 1.6 6.4 0.00 0.00 0.00 84 1015.4
20260507015801 6 130 0.0 1.6 0.00 0.00 0.00 84 1015.4
20260507015603 6 139 0.0 1.6 0.00 0.00 0.00 84 1015.4
20260507015401 6 139 0.0 3.2 0.00 0.00 0.00 84 1015.4
20260507015203 6 108 0.0 3.2 0.00 0.00 0.00 84 1015.4
20260507015002 6 113 0.0 3.2 0.00 0.00 0.00 84 1015.4
20260507014803 6 113 0.0 3.2 0.00 0.00 0.00 84 1015.5
20260507014601 6 74 0.0 3.2 0.00 0.00 0.00 84 1015.5
20260507014402 6 108 0.0 3.2 0.00 0.00 0.00 84 1015.4
20260507014201 6 136 0.0 4.8 0.00 0.00 0.00 83 1015.4
20260507014004 6 172 0.0 4.8 0.00 0.00 0.00 83 1015.4
20260507013801 6 117 0.0 4.8 0.00 0.00 0.00 83 1015.4
20260507013602 6 120 1.6 4.8 0.00 0.00 0.00 83 1015.4
20260507013401 6 152 0.0 4.8 0.00 0.00 0.00 83 1015.5
20260507013203 6 150 0.0 4.8 0.00 0.00 0.00 83 1015.5
20260507013002 6 138 1.6 4.8 0.00 0.00 0.00 83 1015.4
20260507012601 6 133 0.0 3.2 0.00 0.00 0.00 83 1015.4
20260507012403 6 146 0.0 4.8 0.00 0.00 0.00 83 1015.4
20260507012201 6 136 0.0 4.8 0.00 0.00 0.00 83 1015.4
20260507012003 6 126 0.0 4.8 0.00 0.00 0.00 83 1015.4
20260507011801 6 151 1.6 4.8 0.00 0.00 0.00 83 1015.4
20260507011602 6 124 1.6 4.8 0.00 0.00 0.00 83 1015.4
20260507011401 6 138 0.0 4.8 0.00 0.00 0.00 83 1015.5
20260507011203 6 169 1.6 4.8 0.00 0.00 0.00 82 1015.5
20260507010802 6 120 0.0 3.2 0.00 0.00 0.00 82 1015.5
20260507010601 6 141 1.6 3.2 0.00 0.00 0.00 82 1015.5
20260507010402 6 91 0.0 6.4 0.00 0.00 0.00 82 1015.6
20260507010200 6 145 0.0 6.4 0.00 0.00 0.00 82 1015.6
20260507005801 6 160 0.0 6.4 0.00 0.00 0.00 82 1015.5
20260507005603 6 118 1.6 6.4 0.00 0.00 0.00 82 1015.6
20260507005401 6 148 1.6 4.8 0.00 0.00 0.00 82 1015.5
20260507005203 6 135 0.0 4.8 0.00 0.00 0.00 81 1015.6
20260507005002 6 139 1.6 4.8 0.00 0.00 0.00 81 1015.5
20260507004802 6 131 1.6 6.4 0.00 0.00 0.00 81 1015.5
20260507004402 6 132 0.0 6.4 0.00 0.00 0.00 81 1015.5
20260507004003 6 162 1.6 6.4 0.00 0.00 0.00 81 1015.6
20260507003801 6 179 1.6 6.4 0.00 0.00 0.00 81 1015.6
20260507003604 6 86 1.6 6.4 0.00 0.00 0.00 81 1015.7
20260507003401 6 206 1.6 9.7 0.00 0.00 0.00 81 1015.6
20260507003201 6 122 0.0 9.7 0.00 0.00 0.00 80 1015.7
20260507002801 6 124 1.6 9.7 0.00 0.00 0.00 80 1015.7
20260507002601 6 94 3.2 9.7 0.00 0.00 0.00 80 1015.6
20260507002401 6 141 1.6 9.7 0.00 0.00 0.00 80 1015.6
20260507002204 7 63 3.2 9.7 0.00 0.00 0.00 80 1015.7
20260507002001 7 151 1.6 9.7 0.00 0.00 0.00 80 1015.7
20260507001801 7 124 1.6 9.7 0.00 0.00 0.00 80 1015.7
20260507001604 7 214 1.6 8.0 0.00 0.00 0.00 80 1015.7
20260507001401 7 68 3.2 9.7 0.00 0.00 0.00 80 1015.7
20260507001203 7 68 3.2 12.9 0.00 0.00 0.00 80 1015.7
20260507001002 7 125 3.2 12.9 0.00 0.00 0.00 80 1015.8
20260507000601 7 144 3.2 14.5 0.00 0.00 0.00 80 1015.8
20260507000405 7 102 3.2 14.5 0.00 0.00 0.00 80 1015.8
20260507000201 7 127 4.8 14.5 0.00 0.00 0.00 80 1015.8
20260507000006 7 113 1.6 11.3 0.00 0.00 0.00 80 1015.8
20260506235801 7 81 3.2 9.7 0.00 0.00 0.00 80 1015.7
20260506235601 6 124 3.2 9.7 0.00 0.00 0.00 80 1015.8
20260506235401 6 118 1.6 9.7 0.00 0.00 0.00 80 1015.9
20260506235001 6 225 4.8 9.7 0.00 0.00 0.00 81 1015.7
20260506234801 6 101 1.6 8.0 0.00 0.00 0.00 81 1015.8
20260506234601 6 108 1.6 8.0 0.00 0.00 0.00 81 1015.8
20260506234402 6 128 1.6 8.0 0.00 0.00 0.00 81 1015.8
20260506234201 6 133 1.6 8.0 0.00 0.00 0.00 81 1015.7
20260506234002 6 146 1.6 8.0 0.00 0.00 0.00 81 1015.7
20260506233601 6 96 1.6 8.0 0.00 0.00 0.00 81 1015.7
20260506233401 6 117 1.6 8.0 0.00 0.00 0.00 81 1015.7
20260506233002 6 118 1.6 8.0 0.00 0.00 0.00 81 1015.6
20260506232801 6 75 1.6 4.8 0.00 0.00 0.00 81 1015.7
20260506232601 6 141 1.6 4.8 0.00 0.00 0.00 81 1015.7
20260506232401 6 139 0.0 3.2 0.00 0.00 0.00 81 1015.7
20260506232004 6 86 1.6 4.8 0.00 0.00 0.00 81 1015.7
20260506231802 6 123 0.0 4.8 0.00 0.00 0.00 81 1015.6
20260506231401 6 127 1.6 4.8 0.00 0.00 0.00 81 1015.7
20260506231203 6 66 0.0 4.8 0.00 0.00 0.00 81 1015.7
20260506230802 6 131 1.6 6.4 0.00 0.00 0.00 81 1015.7
20260506230602 6 112 3.2 6.4 0.00 0.00 0.00 80 1015.7
20260506230204 6 81 1.6 6.4 0.00 0.00 0.00 80 1015.7
20260506225804 6 119 1.6 6.4 0.00 0.00 0.00 80 1015.6
20260506225404 6 124 1.6 4.8 0.00 0.00 0.00 80 1015.5
20260506225205 6 86 1.6 4.8 0.00 0.00 0.00 80 1015.6
20260506225005 6 108 0.0 3.2 0.00 0.00 0.00 79 1015.6
20260506224804 6 105 0.0 9.7 0.00 0.00 0.00 79 1015.5
20260506224204 7 131 1.6 9.7 0.00 0.00 0.00 79 1015.5
20260506223604 7 91 0.0 3.2 0.00 0.00 0.00 79 1015.5
20260506223404 7 91 0.0 4.8 0.00 0.00 0.00 79 1015.5
20260506223204 7 100 0.0 6.4 0.00 0.00 0.00 79 1015.5
20260506223005 7 100 0.0 6.4 0.00 0.00 0.00 78 1015.6
20260506222804 7 102 0.0 6.4 0.00 0.00 0.00 78 1015.5
20260506222606 7 82 1.6 8.0 0.00 0.00 0.00 78 1015.5
20260506222405 7 41 1.6 8.0 0.00 0.00 0.00 78 1015.5
20260506222204 7 197 1.6 8.0 0.00 0.00 0.00 78 1015.5
20260506222005 7 108 1.6 8.0 0.00 0.00 0.00 78 1015.5
20260506221804 7 79 1.6 9.7 0.00 0.00 0.00 78 1015.6
20260506221604 7 85 1.6 9.7 0.00 0.00 0.00 78 1015.4
20260506221404 7 70 1.6 9.7 0.00 0.00 0.00 78 1015.5
20260506221005 7 75 3.2 9.7 0.00 0.00 0.00 78 1015.4
20260506220804 7 78 3.2 9.7 0.00 0.00 0.00 78 1015.4
20260506220604 7 85 1.6 9.7 0.00 0.00 0.00 77 1015.3
20260506220405 7 125 1.6 9.7 0.00 0.00 0.00 77 1015.4
20260506220204 7 86 3.2 6.4 0.00 0.00 0.00 77 1015.5
20260506220007 7 102 1.6 8.0 0.00 0.00 0.00 77 1015.4
20260506215804 7 95 1.6 8.0 0.00 0.00 0.00 77 1015.5
20260506215603 7 120 1.6 8.0 0.00 0.00 0.00 77 1015.4
20260506215405 7 106 3.2 8.0 0.00 0.00 0.00 77 1015.5
20260506215205 7 63 3.2 6.4 0.00 0.00 0.00 76 1015.3
20260506215006 7 77 3.2 6.4 0.00 0.00 0.00 76 1015.4
20260506214803 7 68 1.6 6.4 0.00 0.00 0.00 76 1015.4
20260506214605 7 99 1.6 4.8 0.00 0.00 0.00 76 1015.4
20260506214403 8 60 1.6 4.8 0.00 0.00 0.00 75 1015.3
20260506214205 8 98 1.6 4.8 0.00 0.00 0.00 75 1015.4
20260506214004 8 103 1.6 4.8 0.00 0.00 0.00 75 1015.3
20260506213805 8 75 1.6 4.8 0.00 0.00 0.00 75 1015.3
20260506213603 8 87 1.6 4.8 0.00 0.00 0.00 75 1015.3
20260506213404 8 90 0.0 3.2 0.00 0.00 0.00 75 1015.3
20260506213203 8 86 0.0 3.2 0.00 0.00 0.00 75 1015.3
20260506213005 8 90 0.0 6.4 0.00 0.00 0.00 74 1015.3
20260506212803 8 86 0.0 6.4 0.00 0.00 0.00 74 1015.3
20260506212606 8 110 1.6 6.4 0.00 0.00 0.00 74 1015.3
20260506212403 8 287 0.0 6.4 0.00 0.00 0.00 74 1015.3
20260506212205 8 75 1.6 6.4 0.00 0.00 0.00 74 1015.3
20260506212004 8 39 1.6 4.8 0.00 0.00 0.00 74 1015.3
20260506211803 8 97 1.6 4.8 0.00 0.00 0.00 74 1015.2
20260506211605 8 71 1.6 4.8 0.00 0.00 0.00 74 1015.3
20260506211403 8 124 0.0 6.4 0.00 0.00 0.00 74 1015.3
20260506211205 8 129 0.0 6.4 0.00 0.00 0.00 74 1015.4
20260506211004 8 102 0.0 6.4 0.00 0.00 0.00 74 1015.4
20260506210805 8 103 3.2 6.4 0.00 0.00 0.00 74 1015.4
20260506210603 8 97 0.0 4.8 0.00 0.00 0.00 74 1015.3
20260506210203 8 137 0.0 3.2 0.00 0.00 0.00 73 1015.2
20260506210007 8 321 0.0 4.8 0.00 0.00 0.00 73 1015.3
20260506205803 8 114 1.6 8.0 0.00 0.00 0.00 73 1015.4
20260506205403 8 143 1.6 8.0 0.00 0.00 0.00 73 1015.3
20260506205203 8 71 3.2 8.0 0.00 0.00 0.00 73 1015.3
20260506205004 8 80 0.0 6.4 0.00 0.00 0.00 72 1015.3
20260506204803 8 41 1.6 6.4 0.00 0.00 0.00 72 1015.2
20260506204603 8 113 0.0 4.8 0.00 0.00 0.00 72 1015.3
20260506204403 8 160 1.6 4.8 0.00 0.00 0.00 72 1015.2
20260506204203 8 63 1.6 4.8 0.00 0.00 0.00 72 1015.2
20260506203803 8 79 0.0 9.7 0.00 0.00 0.00 71 1015.3
20260506203603 8 32 0.0 9.7 0.00 0.00 0.00 71 1015.2
20260506203403 8 90 1.6 9.7 0.00 0.00 0.00 71 1015.2